Weather History for Rotterdam, Netherlands

Change the Weather History Date:

Wednesday, September 4, 2013

  Actual Average Record
Temperature  
Mean Temperature 67 °F -  
Max Temperature 79 °F 63 °F 79 °F (2013)
Min Temperature 55 °F 50 °F 44 °F (2010)
Cooling Degree Days 2    
Growing Degree Days 17 (Base 50)    
Moisture  
Dew Point 60 °F    
Average Humidity 79    
Maximum Humidity 100    
Minimum Humidity 46    
Precipitation  
Precipitation 0.00 in - - ()
Sea Level Pressure  
Sea Level Pressure 30.19 in    
Wind  
Wind Speed 4 mph ()    
Max Wind Speed 10 mph    
Max Gust Speed -    
Visibility 5.3 miles    
Events Fog    
Averages and records for this station are not official NWS values.
T = Trace of Precipitation, MM = Missing Value Source: Averaged Metar Reports

Daily Weather History Graph

Daily Weather History Graph

Search for Another Location

Airport:

Trip Planner

Search our weather history database for the weather conditions in past years. The results will help you decide how hot, cold, wet, or windy it might be!

Date:

Astronomy

Sep. 04, 2013 Rise Set
Actual Time 6:59 AM CEST 8:22 PM CEST
Civil Twilight 6:24 AM CEST 8:57 PM CEST
Nautical Twilight 5:41 AM CEST 9:39 PM CEST
Astronomical Twilight 4:54 AM CEST 10:26 PM CEST
Moon 5:54 AM CEST (9/4) 7:30 PM CEST (9/4)
Length of Visible Light 14h 33m
Length of Day
13h 23m
Waning Crescent, 1% of the Moon is Illuminated
Sep 4
Waning Crescent
Sep 5
New
Sep 12
First Quarter
Sep 19
Full
Sep 27
Last Quarter

Hourly Weather History & Observations

Time (CEST) Temp. Dew Point Humidity Pressure Visibility Wind Dir Wind Speed Gust Speed Precip Events Conditions
12:25 AM 60.8 °F 60.8 °F 100% 30.30 in 5.6 mi NNE 2.3 mph - N/A   Unknown
12:55 AM 59.0 °F 59.0 °F 100% 30.30 in 4.3 mi NNE 2.3 mph - N/A   Unknown
1:25 AM 60.8 °F 59.0 °F 94% 30.30 in 3.1 mi North 3.5 mph - N/A   Mostly Cloudy
1:55 AM 59.0 °F 59.0 °F 100% 30.27 in 3.7 mi NE 2.3 mph - N/A   Overcast
2:00 AM 60 °F 60 °F 99% 30.30 in 2 mi NNE 2.2 mph - -   Mist
2:25 AM 59.0 °F 59.0 °F 100% 30.27 in 3.7 mi North 2.3 mph - N/A   Overcast
2:55 AM 60.8 °F 60.8 °F 100% 30.27 in 5.6 mi ESE 2.3 mph - N/A   Overcast
3:25 AM 62.6 °F 60.8 °F 94% 30.27 in 6.2 mi ESE 3.5 mph - N/A   Partly Cloudy
3:55 AM 60.8 °F 59.0 °F 94% 30.27 in 6.2 mi Variable 2.3 mph - N/A   Unknown
4:25 AM 59.0 °F 59.0 °F 100% 30.27 in 4.3 mi East 3.5 mph - N/A   Unknown
4:55 AM 60.8 °F 60.8 °F 100% 30.24 in 5.0 mi ENE 2.3 mph - N/A   Unknown
5:25 AM 60.8 °F 59.0 °F 94% 30.24 in 5.0 mi East 1.2 mph - N/A   Unknown
5:55 AM 59.0 °F 59.0 °F 100% 30.24 in 4.3 mi Variable 1.2 mph - N/A   Unknown
6:25 AM 57.2 °F 57.2 °F 100% 30.24 in 6.2 mi Calm Calm - N/A   Unknown
6:55 AM 55.4 °F 55.4 °F 100% 30.24 in 1.6 mi Calm Calm - N/A   Mist
7:25 AM 57.2 °F 57.2 °F 100% 30.24 in 1.8 mi Variable 1.2 mph - N/A   Mist
7:55 AM 57.2 °F 57.2 °F 100% 30.24 in 3.7 mi Variable 1.2 mph - N/A   Unknown
8:00 AM 58 °F 58 °F 98% 30.26 in 4 mi North 2.2 mph - - Fog Fog
8:25 AM 60.8 °F 59.0 °F 94% 30.24 in 3.7 mi NNE 2.3 mph - N/A   Unknown
8:55 AM 62.6 °F 60.8 °F 94% 30.24 in 4.3 mi NE 4.6 mph - N/A   Unknown
9:25 AM 66.2 °F 62.6 °F 88% 30.24 in 5.0 mi NE 4.6 mph - N/A   Unknown
9:55 AM 68.0 °F 60.8 °F 78% 30.24 in 5.0 mi ENE 3.5 mph - N/A   Unknown
10:25 AM 69.8 °F 60.8 °F 73% 30.24 in 5.6 mi ESE 5.8 mph - N/A   Unknown
10:55 AM 71.6 °F 60.8 °F 69% 30.24 in 5.6 mi ESE 6.9 mph - N/A   Unknown
11:00 AM 72 °F 60 °F 57% 30.25 in 6 mi East 8.9 mph - -   Light Haze
11:25 AM 73.4 °F 60.8 °F 65% 30.24 in 6.2 mi East 8.1 mph - N/A   Unknown
11:55 AM 73.4 °F 60.8 °F 65% 30.21 in 5.6 mi ESE 6.9 mph - N/A   Unknown
12:25 PM 73.4 °F 60.8 °F 65% 30.21 in 5.6 mi ESE 9.2 mph - N/A   Partly Cloudy
12:55 PM 75.2 °F 60.8 °F 61% 30.21 in 5.6 mi East 10.4 mph - N/A   Partly Cloudy
1:25 PM 75.2 °F 60.8 °F 61% 30.21 in 6.2 mi ESE 8.1 mph - N/A   Partly Cloudy
1:55 PM 77.0 °F 60.8 °F 57% 30.18 in 6.2 mi ESE 6.9 mph - N/A   Partly Cloudy
2:00 PM 77 °F 61 °F 48% 30.20 in 6 mi East 8.9 mph - -   Partly Cloudy
2:25 PM 77.0 °F 60.8 °F 57% 30.18 in 6.2 mi ENE 9.2 mph - N/A   Scattered Clouds
2:55 PM 77.0 °F 60.8 °F 57% 30.15 in 6.2 mi ENE 10.4 mph - N/A   Unknown
3:25 PM 77.0 °F 62.6 °F 61% 30.15 in 6.2 mi East 8.1 mph - N/A   Unknown
3:55 PM 77.0 °F 60.8 °F 57% 30.15 in 6.2 mi ESE 6.9 mph - N/A   Partly Cloudy
4:25 PM 78.8 °F 60.8 °F 54% 30.15 in 6.2 mi East 6.9 mph - N/A   Partly Cloudy
4:55 PM 77.0 °F 62.6 °F 61% 30.12 in 6.2 mi East 8.1 mph - N/A   Partly Cloudy
5:00 PM 78 °F 61 °F 46% 30.14 in 9 mi East 6.7 mph - -  
5:25 PM 78.8 °F 60.8 °F 54% 30.12 in 6.2 mi ENE 8.1 mph - N/A   Partly Cloudy
5:55 PM 78.8 °F 60.8 °F 54% 30.12 in 6.2 mi East 8.1 mph - N/A   Partly Cloudy
6:25 PM 77.0 °F 62.6 °F 61% 30.12 in 6.2 mi ENE 9.2 mph - N/A   Partly Cloudy
6:55 PM 77.0 °F 62.6 °F 61% 30.09 in 6.2 mi East 8.1 mph - N/A   Unknown
7:25 PM 75.2 °F 62.6 °F 65% 30.09 in 6.2 mi ENE 9.2 mph - N/A   Unknown
7:55 PM 71.6 °F 62.6 °F 73% 30.09 in 6.2 mi ENE 8.1 mph - N/A   Unknown
8:00 PM 71 °F 63 °F 68% 30.11 in 7 mi NE 6.7 mph - -   Partly Cloudy
8:25 PM 69.8 °F 62.6 °F 78% 30.09 in 6.2 mi NE 8.1 mph - N/A   Unknown
8:55 PM 66.2 °F 60.8 °F 83% 30.09 in 6.2 mi ENE 8.1 mph - N/A   Unknown
9:25 PM 64.4 °F 60.8 °F 88% 30.09 in 5.6 mi ENE 5.8 mph - N/A   Unknown
9:55 PM 66.2 °F 62.6 °F 88% 30.06 in 5.6 mi NE 4.6 mph - N/A   Unknown
10:25 PM 64.4 °F 60.8 °F 88% 30.06 in 4.3 mi ENE 4.6 mph - N/A   Unknown
10:55 PM 64.4 °F 60.8 °F 88% 30.06 in 3.1 mi ENE 4.6 mph - N/A   Mist
11:00 PM 63 °F 60 °F 86% 30.08 in 4 mi ENE 4.5 mph - -   Mist
11:25 PM 62.6 °F 59.0 °F 88% 30.06 in 6.2 mi East 5.8 mph - N/A   Unknown
11:55 PM 68.0 °F 60.8 °F 78% 30.06 in 6.2 mi East 8.1 mph - N/A   Unknown